Location: Plymouth Village
(34.0436°N, 117.1717°W)
Time: 01:17:38
(UTC+00:00)

Cosmos 1238 Rocket - Pass Details

Date: 10 September 2024
Orbit: 362 x 849 km, 82.9° (Epoch: 06 October)

Event Time Altitude Azimuth Distance (km) Brightness Sun altitude
Rises 12:50:48 0° 179° (S) 3,188 6.6 -8.6°
Reaches altitude 10° 12:53:03 10° 177° (S) 2,326 5.9 -8.2°
Maximum altitude 12:58:22 72° 93° (E) 874 4.0 -7.1°
Drops below altitude 10° 13:04:05 10° 10° (N) 2,503 6.4 -5.9°
Sets 13:06:35 0° 9° (N) 3,448 7.1 -5.4°
